BREEZE-M DEB, 38648

Orbit data source: Space-Track

BREEZE-M DEB, 38648 is space debris in HEO originally from a launch on Fri, 14 Mar 2008 UTC launched from the Tyuratam Missile And Space Complex (TTMTR). Debris objects in space refer to the collection of defunct objects orbiting the Earth. Examples of debris include non-operational satellites, rocket bodies, and fragments generated from explosions, collisions, or faulty payload assembly.

Loading next visibility...
Identifier
38648, 2008-011CX
Orbit
HEO
Country
Flag of CISCIS
Related business
Manufacturer
Unknown
Mission
Spacecraft
Bus & Motor
Unknown
Mass
Unknown
Launch date (UTC)
2008-03-14 (18 years ago)
Launch vehicle
Unknown
Launch site
Tyuratam Missile And Space Complex (TTMTR)
Object type
Payload
Rocket body
Debris
Shape & HBR
Unknown shape, 2.6 m
Radar Cross Section
Large (>1 m²)

Expand to show TLE details & history
Last TLE update: 2 days ago

TLE from 2 days ago
0 BREEZE-M DEB
1 38648U 08011CX  26171.33505726 -.00000546  00000-0 -37559-2 0  9995
2 38648  49.1847 315.4808 6533195 267.7403  19.0797  3.03308799173987
Epoch: 2026-06-20T08:02Z
TLE epoch observation values (Epoch: 2026-06-20T08:02:28.947Z)
Latitude
-5.14147°
Longitude
-78.17064°
Altitude
4,613.69 km
Speed
7.264 km/s
True Right ascension
20h 44m 00s
True Declination
-5° 07' 18"
Sunlit
Object was in daylight at epoch
Visualization orbit readout
Latitude
Unknown
Longitude
Unknown
Altitude
Unknown
Speed
Unknown
Apparent Right ascension
Unknown
Apparent Declination
Unknown
Sunlit
N/A
Visualization observer readout
Local Sidereal Time
00:39:46
Azimuth
Unknown
Elevation
Unknown
Doppler factor
Unknown
Orbital elements
Apogee altitude
26,953.054 km
Perigee altitude
610.998 km
Semi-major axis
20,160.163 km
Eccentricity
0.65332
Inclination
49.1847°
RAAN
315.4808°
Arg. of periapsis
267.7403°
True anomaly
85.67529°
Mean anomaly
19.0797°
Eccentric anomaly
46.01163°
Mean motion
0.75823 °/min
Orbital period
474.79 mins
BSTAR
-0.0037559
Loading maneuver chart data...
Computing Atmospheric mass density...
Loading historical data...
Loading historical data...
Loading historical data...
Loading historical data...
Loading historical data...
Loading historical data...
Loading historical data...

Documentation

Showing up to 5 results
|